Location: Newark
(37.3394°N, 6.0261°W)
Time: 06:29:26
(UTC+00:00)

Envisat - Pass Details

Date: 23 March 2019
Orbit: 764 x 766 km, 98.1° (Epoch: 21 October)

Event Time Altitude Azimuth Distance (km) Brightness Sun altitude
Rises 19:37:22 0° 185° (S) 3,213 6.2 -12.5°
Reaches altitude 10° 19:39:47 10° 193° (SSW) 2,292 5.5 -12.9°
Maximum altitude 19:44:30 39° 262° (W) 1,131 4.5 -13.9°
Drops below altitude 10° 19:49:15 10° 331° (NNW) 2,307 6.1 -14.8°
Sets 19:51:43 0° 339° (NNW) 3,237 6.7 -15.2°
